Regional Weather Roundup
Issued by NWS Midland/Odessa, TX

Skip options and go directly to product.
Home | Oldest Version | Previous Version | Current Version | All | Text Only | Save Text | Print | Product List | Glossary On

Skip product version selection by date and time.   
076
ASUS44 KMAF 300210
RWRMAF
MIDLAND AREA WEATHER ROUNDUP
NATIONAL WEATHER SERVICE MIDLAND TX
900 PM CDT FRI AUG 29 2014

...IN SOUTHWEST TEXAS AND SOUTHEAST NEW MEXICO...

CITY           SKY/WX    TMP DP  RH WIND       PRES   REMARKS
ALPINE         CLEAR     78  46  31 NE6       30.09R
ANDREWS        FAIR      82  57  43 E6        29.98R
ARTESIA        NOT AVBL
BIG SPRING     CLEAR     82  68  62 NE9       29.97R
CARLSBAD       CLEAR     86  46  24 NW7       29.93R
DRYDEN           N/A     90  62  39 SE9       29.87R
FORT STOCKTON  PTCLDY    86  54  33 E8        29.93R
GUAD PASS      CLEAR     75  45  34 NE10      30.12R
HOBBS          PTCLDY    81  55  41 CALM      30.00R
MARFA          CLEAR     77  43  29 NE10      30.08R
MIDLAND AIRPK  CLEAR     85  63  47 SE10      29.96R
MIDLAND INTL   CLEAR     85  63  47 E9        29.95R
ODESSA         CLEAR     85  62  46 E10       29.96R
PECOS          CLEAR     89  55  32 NE9       29.89R
PRESIDIO       FAIR      93  53  25 MISG      29.87R
SEMINOLE       CLEAR     82  57  43 E7        30.00R
SNYDER         PTCLDY    78  66  65 E5        29.96R
WINK           CLEAR     90  57  32 E9        29.91R
$$
...OTHER STATIONS IN TEXAS...

CITY           SKY/WX    TMP DP  RH WIND       PRES   REMARKS
ABILENE        MOCLDY    80  66  62 NE6       29.94R
AMARILLO       CLEAR     78  48  34 E8        30.00R
AUSTIN         PTCLDY    75  69  81 W5        29.88R
BROWNSVILLE    CLOUDY    81  79  94 E7        29.80R
CORPUS CHRISTI MOCLDY    81  74  79 SE7       29.82R
DALLAS FTW     CLOUDY    83  69  62 SE5       29.87R
DEL RIO        CLEAR     93  65  39 E8        29.82R
EL PASO        PTCLDY    87  44  22 SE5       29.96R
HOUSTON INT    MOCLDY    77  72  83 E9        29.89R
LUBBOCK        PTCLDY    79  62  56 SE8       29.98R
SAN ANGELO     MOCLDY    77  67  71 SW6       29.91R
SAN ANTONIO    MOCLDY    87  67  51 E12       29.85R
WACO           MOCLDY    82  68  62 SE9       29.90R
WICHITA FALLS  NOT AVBL
$$
...OTHER LOCATIONS IN NEW MEXICO...

CITY           SKY/WX    TMP DP  RH WIND       PRES   REMARKS
ALAMAGORDO     CLEAR     82  41  23 W6        30.00R
ALBUQUERQUE    PTCLDY    78  40  25 SE8       30.08S
CANNON AFB     CLEAR     78  39  24 N6        30.04R
CLOVIS           N/A     75  36  23 NE5       30.06R
HOLLOMAN AFB   CLEAR     85  44  24 W5        29.97R
ROSWELL        CLEAR     84  48  28 S3        29.98R
RUIDOSO        CLEAR     64  46  52 SE8       30.24R
SANTA FE       CLEAR     72  36  26 SE3       30.15S
TRUTH OR CONSE CLEAR     81  43  26 NE6       30.03R
TUCUMCARI      CLEAR     79  38  22 S6        30.00R
$$

USA.gov is the U.S. government's official web portal to all federal, state and local government web resources and services.